Location: Alafon
(8.4500°N, 4.2333°E)
Time: 03:40:58
(UTC+00:00)

Vanguard 3 - Visible Passes

Search period start: 06 August 2021 00:00
Search period end: 16 August 2021 00:00
Orbit: 508 x 3261 km, 33.4° (Epoch: 05 August)

Date Brightness Start Highest point End Pass type
(mag) Time Alt. Az. Time Alt. Az. Time Alt. Az.
06 Aug 11.2 00:20:13 10° WNW 00:24:02 19° WNW 00:24:02 19° WNW visible
06 Aug 11.0 18:30:22 10° NW 18:43:23 29° N 18:59:21 10° ENE visible
06 Aug 10.3 20:45:48 10° NW 21:04:04 48° NNE 21:08:50 43° ENE visible
06 Aug 10.5 23:02:02 10° NW 23:13:19 43° WNW 23:13:19 43° WNW visible
07 Aug 10.7 19:29:46 10° NW 19:45:24 37° NNE 19:58:10 19° ENE visible
07 Aug 10.0 21:44:54 10° NW 22:02:39 67° N 22:02:39 67° N visible
08 Aug 11.2 00:02:43 10° WNW 00:07:08 20° WNW 00:07:08 20° WNW visible
08 Aug 10.9 18:14:09 10° NW 18:26:42 29° NNE 18:42:35 10° ENE visible
08 Aug 10.2 20:28:38 10° NW 20:46:42 53° NNE 20:52:02 45° ENE visible
08 Aug 10.4 22:44:30 10° WNW 22:56:32 46° WNW 22:56:32 46° WNW visible
09 Aug 10.6 19:13:01 10° NW 19:28:18 39° NNE 19:41:29 20° ENE visible
09 Aug 9.9 21:27:33 10° NW 21:45:59 75° N 21:45:59 75° N visible
09 Aug 11.1 23:45:22 10° WNW 23:50:29 21° WNW 23:50:29 21° WNW visible
10 Aug 10.8 17:57:53 10° NW 18:09:59 30° NNE 18:25:47 10° ENE visible
10 Aug 10.1 20:11:33 10° NW 20:29:15 57° NNE 20:35:30 46° ENE visible
10 Aug 10.3 22:27:07 10° WNW 22:40:00 50° WNW 22:40:00 50° WNW visible
11 Aug 10.5 18:56:18 10° NW 19:11:09 42° NNE 19:25:04 19° E visible
11 Aug 9.8 21:10:18 10° NW 21:29:32 84° NE 21:29:35 84° NE visible
11 Aug 11.1 23:28:11 10° WNW 23:34:06 23° W 23:34:06 23° W visible
12 Aug 10.1 19:54:34 10° NW 20:11:42 63° NNE 20:19:14 45° E visible
12 Aug 10.3 22:09:54 10° WNW 22:23:45 53° W 22:23:45 53° W visible
13 Aug 10.3 18:39:38 10° NW 18:53:55 45° NNE 19:08:57 18° E visible
13 Aug 9.8 20:53:13 10° NW 21:11:47 89° SW 21:13:29 81° SE visible
13 Aug 11.1 23:11:13 10° W 23:18:00 24° W 23:18:00 24° W visible
14 Aug 10.0 19:37:40 10° NW 19:54:07 68° NE 20:03:15 41° ESE visible
14 Aug 10.2 21:52:52 10° WNW 22:07:47 54° WSW 22:07:47 54° WSW visible
15 Aug 10.2 18:23:00 10° NW 18:36:40 49° NNE 18:53:07 15° E visible
15 Aug 9.8 20:36:16 10° WNW 20:54:02 82° SW 20:57:40 69° SSE visible
15 Aug 11.0 22:54:29 10° W 23:02:12 25° WSW 23:02:12 25° WSW visible
